• în România
  • Lista ţărilor
  • Pe 7 zile
  • Temperatura apei
  • Hartă satelitară
  • Meteo pe hartă
  • Widget-uri
  • user-avatar
    Intrare

    Meteo pe oră la Karlovac

    Astăzi, 18 Iunie, Luni

    Timp Temperatura Precipitaţii Vânt Presiune Umiditate
    00:00 +18°C° 0,3 mm 1 m/s 740 mmHg 91%
    01:00 +18°C° 0 mm 1 m/s 739 mmHg 91%
    02:00 +16°C° 0 mm 1 m/s 740 mmHg 91%
    03:00 +16°C° 0 mm 1 m/s 740 mmHg 91%
    04:00 +16°C° 0 mm 1 m/s 740 mmHg 91%
    05:00 +17°C° 0 mm 2 m/s 740 mmHg 86%
    06:00 +19°C° 0 mm 2 m/s 740 mmHg 81%
    07:00 +21°C° 0 mm 2 m/s 740 mmHg 75%
    08:00 +22°C° 0 mm 3 m/s 741 mmHg 67%
    09:00 +25°C° 0 mm 4 m/s 741 mmHg 59%
    10:00 +27°C° 0 mm 5 m/s 741 mmHg 51%
    11:00 +27°C° 0,1 mm 5 m/s 741 mmHg 49%
    12:00 +28°C° 0,1 mm 5 m/s 741 mmHg 48%
    13:00 +29°C° 0,1 mm 5 m/s 741 mmHg 46%
    14:00 +29°C° 0,1 mm 4 m/s 741 mmHg 47%
    15:00 +29°C° 0,1 mm 4 m/s 741 mmHg 48%
    16:00 +28°C° 0,1 mm 4 m/s 741 mmHg 49%
    17:00 +27°C° 0,1 mm 3 m/s 741 mmHg 57%
    18:00 +25°C° 0,1 mm 3 m/s 741 mmHg 65%
    19:00 +23°C° 0,1 mm 2 m/s 741 mmHg 73%
    20:00 +21°C° 0 mm 2 m/s 741 mmHg 76%
    21:00 +20°C° 0 mm 2 m/s 742 mmHg 79%
    22:00 +19°C° 0 mm 2 m/s 742 mmHg 82%
    23:00 +18°C° 0 mm 2 m/s 742 mmHg 83%

    Mâine, 19 Iunie, Marţi

    Timp Temperatura Precipitaţii Vânt Presiune Umiditate
    00:00 +18°C° 0 mm 2 m/s 742 mmHg 84%
    01:00 +17°C° 0 mm 2 m/s 742 mmHg 85%
    02:00 +17°C° 0 mm 2 m/s 742 mmHg 85%
    03:00 +17°C° 0 mm 2 m/s 742 mmHg 85%
    04:00 +16°C° 0 mm 2 m/s 742 mmHg 85%
    05:00 +18°C° 0 mm 3 m/s 743 mmHg 80%
    06:00 +19°C° 0 mm 3 m/s 743 mmHg 74%
    07:00 +21°C° 0 mm 4 m/s 743 mmHg 68%
    08:00 +22°C° 0 mm 4 m/s 743 mmHg 63%
    09:00 +25°C° 0 mm 5 m/s 743 mmHg 57%
    10:00 +26°C° 0 mm 5 m/s 744 mmHg 52%
    11:00 +27°C° 0 mm 5 m/s 743 mmHg 50%
    12:00 +28°C° 0 mm 5 m/s 743 mmHg 49%
    13:00 +29°C° 0 mm 5 m/s 743 mmHg 47%
    14:00 +29°C° 0 mm 5 m/s 743 mmHg 48%
    15:00 +29°C° 0 mm 5 m/s 743 mmHg 49%
    16:00 +29°C° 0 mm 4 m/s 742 mmHg 50%
    17:00 +27°C° 0 mm 4 m/s 742 mmHg 58%
    18:00 +25°C° 0 mm 3 m/s 743 mmHg 65%
    19:00 +24°C° 0 mm 3 m/s 743 mmHg 73%
    20:00 +22°C° 0 mm 3 m/s 743 mmHg 75%
    21:00 +21°C° 0 mm 3 m/s 743 mmHg 77%
    22:00 +20°C° 0 mm 3 m/s 743 mmHg 79%
    23:00 +20°C° 0 mm 3 m/s 743 mmHg 79%

    Poimâine, 20 Iunie, Miercuri

    Timp Temperatura Precipitaţii Vânt Presiune Umiditate
    00:00 +20°C° 0 mm 3 m/s 743 mmHg 80%
    01:00 +20°C° 0 mm 3 m/s 743 mmHg 81%
    02:00 +20°C° 0 mm 3 m/s 743 mmHg 82%
    03:00 +19°C° 0 mm 3 m/s 743 mmHg 83%
    04:00 +19°C° 0 mm 3 m/s 743 mmHg 84%
    05:00 +20°C° 0 mm 3 m/s 743 mmHg 82%
    06:00 +20°C° 0 mm 3 m/s 743 mmHg 80%
    07:00 +21°C° 0 mm 3 m/s 744 mmHg 79%
    08:00 +22°C° 0 mm 3 m/s 744 mmHg 77%
    09:00 +24°C° 0 mm 3 m/s 744 mmHg 76%
    10:00 +25°C° 0 mm 3 m/s 744 mmHg 74%
    11:00 +26°C° 0,1 mm 3 m/s 744 mmHg 72%
    12:00 +27°C° 0,1 mm 3 m/s 744 mmHg 71%
    13:00 +28°C° 0,1 mm 3 m/s 743 mmHg 69%
    14:00 +28°C° 0 mm 3 m/s 743 mmHg 68%
    15:00 +28°C° 0 mm 3 m/s 743 mmHg 67%
    16:00 +28°C° 0 mm 3 m/s 743 mmHg 66%
    17:00 +27°C° 0 mm 2 m/s 743 mmHg 73%
    18:00 +26°C° 0 mm 2 m/s 743 mmHg 79%
    19:00 +25°C° 0 mm 1 m/s 743 mmHg 86%
    20:00 +24°C° 0,2 mm 1 m/s 743 mmHg 89%
    21:00 +23°C° 0,2 mm 1 m/s 743 mmHg 92%
    22:00 +22°C° 0,2 mm 1 m/s 743 mmHg 94%
    23:00 +21°C° 0 mm 1 m/s 743 mmHg 95%

    21 Iunie, Joi

    Timp Temperatura Precipitaţii Vânt Presiune Umiditate
    00:00 +21°C° 0 mm 1 m/s 743 mmHg 96%
    01:00 +21°C° 0 mm 1 m/s 742 mmHg 96%
    02:00 +20°C° 0 mm 1 m/s 742 mmHg 97%
    03:00 +20°C° 0 mm 1 m/s 742 mmHg 97%
    04:00 +20°C° 0 mm 1 m/s 741 mmHg 97%
    05:00 +19°C° 0 mm 0 m/s 741 mmHg 94%
    06:00 +21°C° 0 mm 0 m/s 741 mmHg 90%
    07:00 +22°C° 0 mm 0 m/s 741 mmHg 86%
    08:00 +24°C° 0 mm 0 m/s 741 mmHg 78%
    09:00 +28°C° 0 mm 1 m/s 741 mmHg 69%
    10:00 +30°C° 0 mm 1 m/s 741 mmHg 60%
    11:00 +31°C° 0,1 mm 1 m/s 740 mmHg 57%
    12:00 +32°C° 0,1 mm 1 m/s 740 mmHg 53%
    13:00 +33°C° 0,1 mm 1 m/s 740 mmHg 50%
    14:00 +32°C° 0,1 mm 1 m/s 739 mmHg 50%
    15:00 +32°C° 0,1 mm 2 m/s 739 mmHg 50%
    16:00 +32°C° 0,1 mm 2 m/s 738 mmHg 50%
    17:00 +30°C° 0 mm 2 m/s 738 mmHg 59%
    18:00 +28°C° 0 mm 2 m/s 738 mmHg 68%
    19:00 +26°C° 0 mm 2 m/s 738 mmHg 77%
    20:00 +25°C° 0 mm 2 m/s 738 mmHg 80%
    21:00 +23°C° 0 mm 1 m/s 738 mmHg 84%
    22:00 +22°C° 0 mm 1 m/s 738 mmHg 87%
    23:00 +22°C° 0 mm 1 m/s 738 mmHg 88%

    22 Iunie, Vineri

    Timp Temperatura Precipitaţii Vânt Presiune Umiditate
    00:00 +21°C° 0 mm 1 m/s 738 mmHg 89%
    01:00 +21°C° 0 mm 1 m/s 738 mmHg 89%
    02:00 +21°C° 0 mm 1 m/s 738 mmHg 89%
    03:00 +21°C° 0 mm 1 m/s 737 mmHg 89%
    04:00 +20°C° 0 mm 1 m/s 737 mmHg 89%
    05:00 +21°C° 0,1 mm 1 m/s 737 mmHg 88%
    06:00 +21°C° 0,1 mm 2 m/s 738 mmHg 87%
    07:00 +21°C° 0,1 mm 2 m/s 738 mmHg 86%
    08:00 +20°C° 0,2 mm 2 m/s 738 mmHg 88%
    09:00 +19°C° 0,2 mm 3 m/s 738 mmHg 89%
    10:00 +18°C° 0,2 mm 3 m/s 739 mmHg 91%
    11:00 +16°C° 0,5 mm 3 m/s 739 mmHg 91%
    12:00 +14°C° 0,5 mm 3 m/s 740 mmHg 92%
    13:00 +12°C° 0,5 mm 4 m/s 740 mmHg 92%
    14:00 +12°C° 0,5 mm 4 m/s 741 mmHg 90%
    15:00 +12°C° 0,5 mm 4 m/s 741 mmHg 88%
    16:00 +12°C° 0,5 mm 4 m/s 742 mmHg 86%
    17:00 +11°C° 0,3 mm 4 m/s 742 mmHg 85%
    18:00 +11°C° 0,3 mm 4 m/s 742 mmHg 83%
    19:00 +10°C° 0,3 mm 3 m/s 742 mmHg 82%
    20:00 +10°C° 0,8 mm 3 m/s 742 mmHg 86%
    21:00 +9°C° 0,8 mm 3 m/s 742 mmHg 90%
    22:00 +9°C° 0,8 mm 2 m/s 742 mmHg 95%
    23:00 +9°C° 0,2 mm 2 m/s 742 mmHg 94%

    23 Iunie, Sâmbătă

    Timp Temperatura Precipitaţii Vânt Presiune Umiditate
    00:00 +8°C° 0,2 mm 2 m/s 742 mmHg 93%
    01:00 +8°C° 0,2 mm 2 m/s 742 mmHg 93%
    02:00 +8°C° 0 mm 2 m/s 742 mmHg 92%
    03:00 +7°C° 0 mm 2 m/s 742 mmHg 92%
    04:00 +7°C° 0 mm 2 m/s 742 mmHg 92%
    05:00 +8°C° 0 mm 2 m/s 742 mmHg 90%
    06:00 +10°C° 0 mm 2 m/s 743 mmHg 87%
    07:00 +12°C° 0 mm 2 m/s 743 mmHg 85%
    08:00 +13°C° 0 mm 3 m/s 743 mmHg 74%
    09:00 +15°C° 0 mm 4 m/s 743 mmHg 64%
    10:00 +17°C° 0 mm 5 m/s 743 mmHg 53%
    11:00 +19°C° 0 mm 5 m/s 743 mmHg 51%
    12:00 +20°C° 0 mm 5 m/s 742 mmHg 49%
    13:00 +21°C° 0 mm 5 m/s 742 mmHg 47%
    14:00 +21°C° 0 mm 4 m/s 742 mmHg 48%
    15:00 +21°C° 0 mm 4 m/s 742 mmHg 49%
    16:00 +21°C° 0 mm 4 m/s 742 mmHg 50%
    17:00 +19°C° 0 mm 4 m/s 742 mmHg 57%
    18:00 +18°C° 0 mm 3 m/s 742 mmHg 64%
    19:00 +17°C° 0 mm 3 m/s 742 mmHg 70%
    20:00 +14°C° 0 mm 3 m/s 743 mmHg 75%
    21:00 +14°C° 0 mm 2 m/s 743 mmHg 80%
    22:00 +12°C° 0 mm 2 m/s 743 mmHg 85%
    23:00 +12°C° 0 mm 2 m/s 743 mmHg 85%
    Arată mai mult